DELVB EDDL-EDDV

Flight info

Callsign DELVB
Flight time 1h 27m
Altitude 9000
Route NUDGO4H NUDGO Z858 ESADU P12 WRB WRB8P
Aircraft DA42/L-SBDGRY/S

Departure

Time 2026-05-04 19:15
Airport Düsseldorf Airport (EDDL)

Arrival

Time 2026-05-04 20:42
Airport Hannover Airport (EDDV)
Time Latitude Longitude Altitude Speed Heading
2026-05-04 18:27 51.27577 6.75317 120 ft 0 kts 58°
2026-05-04 18:58 51.27565 6.75314 118 ft 4 kts 201°
2026-05-04 18:58 51.27541 6.75303 119 ft 4 kts 199°
2026-05-04 18:58 51.27507 6.75321 118 ft 8 kts 155°
2026-05-04 18:59 51.27470 6.75364 119 ft 5 kts 139°
2026-05-04 18:59 51.27458 6.75430 120 ft 5 kts 109°
2026-05-04 18:59 51.27452 6.75479 120 ft 6 kts 101°
2026-05-04 18:59 51.27444 6.75528 122 ft 3 kts 107°
2026-05-04 19:00 51.27439 6.75576 120 ft 4 kts 102°
2026-05-04 19:00 51.27435 6.75629 123 ft 4 kts 86°
2026-05-04 19:00 51.27451 6.75640 122 ft 0 kts 357°
2026-05-04 19:00 51.27461 6.75634 123 ft 0 kts 332°
2026-05-04 19:01 51.27473 6.75622 121 ft 7 kts 325°
2026-05-04 19:01 51.27541 6.75565 122 ft 13 kts 342°
2026-05-04 19:01 51.27614 6.75512 123 ft 11 kts 340°
2026-05-04 19:01 51.27674 6.75485 121 ft 9 kts 333°
2026-05-04 19:02 51.27729 6.75441 118 ft 9 kts 332°
2026-05-04 19:02 51.27789 6.75393 121 ft 11 kts 337°
2026-05-04 19:02 51.27835 6.75406 120 ft 0 kts 29°
2026-05-04 19:02 51.27870 6.75478 118 ft 11 kts 54°
2026-05-04 19:03 51.27923 6.75589 122 ft 12 kts 53°
2026-05-04 19:03 51.27964 6.75673 125 ft 8 kts 54°
2026-05-04 19:03 51.27984 6.75715 125 ft 0 kts 52°
2026-05-04 19:04 51.27988 6.75723 125 ft 0 kts 49°
2026-05-04 19:04 51.28029 6.75807 124 ft 17 kts 54°
2026-05-04 19:05 51.28086 6.75932 129 ft 12 kts 53°
2026-05-04 19:05 51.28115 6.75990 129 ft 0 kts 52°
2026-05-04 19:05 51.28117 6.75995 129 ft 5 kts 52°
2026-05-04 19:06 51.28172 6.76108 128 ft 19 kts 56°
2026-05-04 19:06 51.28244 6.76262 128 ft 17 kts 53°
2026-05-04 19:06 51.28319 6.76422 126 ft 19 kts 54°
2026-05-04 19:06 51.28402 6.76588 125 ft 20 kts 52°
2026-05-04 19:07 51.28462 6.76712 129 ft 8 kts 51°
2026-05-04 19:07 51.28481 6.76756 132 ft 2 kts 50°
2026-05-04 19:07 51.28530 6.76868 134 ft 20 kts 57°
2026-05-04 19:07 51.28604 6.77018 136 ft 15 kts 52°
2026-05-04 19:08 51.28658 6.77131 136 ft 12 kts 54°
2026-05-04 19:08 51.28710 6.77234 135 ft 12 kts 50°
2026-05-04 19:08 51.28754 6.77331 135 ft 10 kts 54°
2026-05-04 19:08 51.28796 6.77414 135 ft 10 kts 50°
2026-05-04 19:09 51.28836 6.77503 133 ft 10 kts 53°
2026-05-04 19:09 51.28873 6.77580 135 ft 7 kts 52°
2026-05-04 19:09 51.28906 6.77638 136 ft 9 kts 37°
2026-05-04 19:09 51.28952 6.77632 138 ft 5 kts 323°
2026-05-04 19:10 51.28976 6.77604 138 ft 0 kts 323°
2026-05-04 19:13 51.29041 6.77523 137 ft 12 kts 316°
2026-05-04 19:13 51.29049 6.77482 136 ft 0 kts 233°
2026-05-04 19:14 51.28981 6.77344 133 ft 47 kts 235°
2026-05-04 19:15 51.28687 6.76723 205 ft 83 kts 232°
2026-05-04 19:15 51.28328 6.75951 433 ft 92 kts 233°
2026-05-04 19:15 51.27958 6.75103 771 ft 92 kts 236°
2026-05-04 19:15 51.27604 6.74241 1110 ft 91 kts 233°
2026-05-04 19:16 51.27202 6.73395 1347 ft 102 kts 231°
2026-05-04 19:16 51.26759 6.72470 1615 ft 107 kts 232°
2026-05-04 19:16 51.26307 6.71524 1941 ft 103 kts 231°
2026-05-04 19:16 51.25884 6.70657 2286 ft 101 kts 229°
2026-05-04 19:17 51.25424 6.69812 2643 ft 99 kts 226°
2026-05-04 19:17 51.24975 6.68966 2949 ft 100 kts 229°
2026-05-04 19:17 51.24532 6.68090 3267 ft 102 kts 231°
2026-05-04 19:17 51.24110 6.67181 3594 ft 103 kts 232°
2026-05-04 19:18 51.23646 6.66275 3874 ft 106 kts 227°
2026-05-04 19:18 51.23195 6.65381 4234 ft 103 kts 237°
2026-05-04 19:18 51.22817 6.64418 4577 ft 101 kts 236°
2026-05-04 19:18 51.22365 6.63595 4911 ft 99 kts 208°
2026-05-04 19:19 51.21683 6.63446 5187 ft 103 kts 177°
2026-05-04 19:19 51.20978 6.63582 5511 ft 101 kts 179°
2026-05-04 19:19 51.20272 6.63688 5804 ft 103 kts 175°
2026-05-04 19:19 51.19572 6.63899 6145 ft 102 kts 171°
2026-05-04 19:20 51.18876 6.64185 6436 ft 104 kts 170°
2026-05-04 19:20 51.18169 6.64405 6728 ft 104 kts 172°
2026-05-04 19:20 51.17502 6.64840 7005 ft 109 kts 149°
2026-05-04 19:20 51.16990 6.65744 7313 ft 112 kts 128°
2026-05-04 19:21 51.16598 6.66815 7622 ft 112 kts 126°
2026-05-04 19:21 51.16210 6.67911 7923 ft 113 kts 123°
2026-05-04 19:21 51.15927 6.69096 8215 ft 117 kts 114°
2026-05-04 19:21 51.15653 6.70285 8530 ft 114 kts 118°
2026-05-04 19:22 51.15101 6.71158 8752 ft 115 kts 149°
2026-05-04 19:22 51.14444 6.71971 9006 ft 119 kts 143°
2026-05-04 19:22 51.13897 6.73055 9057 ft 142 kts 124°
2026-05-04 19:22 51.13629 6.74657 9143 ft 155 kts 102°
2026-05-04 19:23 51.13577 6.76490 9035 ft 173 kts 94°
2026-05-04 19:23 51.13656 6.78446 9038 ft 178 kts 90°
2026-05-04 19:23 51.13735 6.80446 8994 ft 183 kts 91°
2026-05-04 19:23 51.13817 6.82480 8970 ft 185 kts 91°
2026-05-04 19:24 51.13909 6.84548 8889 ft 189 kts 89°
2026-05-04 19:24 51.14040 6.86645 8816 ft 191 kts 89°
2026-05-04 19:24 51.14112 6.88717 8924 ft 183 kts 92°
2026-05-04 19:24 51.14169 6.90746 8930 ft 184 kts 92°
2026-05-04 19:25 51.14269 6.92764 9006 ft 182 kts 89°
2026-05-04 19:25 51.14395 6.94750 9037 ft 184 kts 85°
2026-05-04 19:25 51.14624 6.96770 9012 ft 186 kts 88°
2026-05-04 19:25 51.14745 6.98828 8986 ft 187 kts 90°
2026-05-04 19:26 51.14846 7.00900 8978 ft 187 kts 91°
2026-05-04 19:26 51.14912 7.02967 8977 ft 187 kts 92°
2026-05-04 19:26 51.14973 7.05036 8981 ft 187 kts 92°
2026-05-04 19:26 51.15018 7.07107 8980 ft 187 kts 94°
2026-05-04 19:27 51.15020 7.09175 8983 ft 187 kts 95°
2026-05-04 19:27 51.15017 7.11246 8980 ft 187 kts 95°
2026-05-04 19:27 51.15015 7.13319 8980 ft 187 kts 95°
2026-05-04 19:27 51.15013 7.15386 8981 ft 187 kts 95°
2026-05-04 19:28 51.15009 7.17454 8988 ft 186 kts 95°
2026-05-04 19:28 51.15008 7.19522 8985 ft 186 kts 95°
2026-05-04 19:28 51.15011 7.21576 8987 ft 185 kts 95°
2026-05-04 19:28 51.15010 7.23599 8986 ft 185 kts 95°
2026-05-04 19:29 51.15012 7.25660 8985 ft 186 kts 95°
2026-05-04 19:29 51.15017 7.27703 9106 ft 179 kts 95°
2026-05-04 19:29 51.15034 7.29555 9614 ft 154 kts 95°
2026-05-04 19:29 51.15072 7.31128 10153 ft 133 kts 95°
2026-05-04 19:30 51.15118 7.32587 10434 ft 133 kts 95°
2026-05-04 19:30 51.15160 7.34128 10592 ft 142 kts 95°
2026-05-04 19:30 51.15202 7.35669 10934 ft 137 kts 95°
2026-05-04 19:30 51.15238 7.37264 10987 ft 155 kts 95°
2026-05-04 19:31 51.15264 7.39062 10993 ft 168 kts 95°
2026-05-04 19:31 51.15285 7.40978 10994 ft 177 kts 95°
2026-05-04 19:31 51.15300 7.42972 10997 ft 183 kts 95°
2026-05-04 19:31 51.15393 7.45011 10990 ft 191 kts 78°
2026-05-04 19:32 51.15707 7.46331 10992 ft 194 kts 70°
2026-05-04 19:32 51.16262 7.48304 10993 ft 195 kts 69°
2026-05-04 19:32 51.16826 7.50276 10993 ft 196 kts 69°
2026-05-04 19:32 51.17390 7.52257 10993 ft 196 kts 69°
2026-05-04 19:33 51.17955 7.54237 10996 ft 196 kts 69°
2026-05-04 19:33 51.18517 7.56214 10990 ft 196 kts 69°
2026-05-04 19:33 51.19079 7.58194 10989 ft 197 kts 69°
2026-05-04 19:33 51.19644 7.60184 10991 ft 197 kts 69°
2026-05-04 19:34 51.20207 7.62176 10993 ft 198 kts 69°
2026-05-04 19:34 51.20771 7.64179 10992 ft 198 kts 69°
2026-05-04 19:34 51.21334 7.66184 10986 ft 198 kts 69°
2026-05-04 19:34 51.21889 7.68165 10990 ft 198 kts 69°
2026-05-04 19:35 51.22457 7.70199 10990 ft 198 kts 69°
2026-05-04 19:35 51.23008 7.72181 10989 ft 198 kts 70°
2026-05-04 19:35 51.23522 7.74216 10990 ft 198 kts 72°
2026-05-04 19:35 51.23830 7.76326 10986 ft 194 kts 89°
2026-05-04 19:36 51.24025 7.78468 10987 ft 196 kts 79°
2026-05-04 19:36 51.24471 7.80538 10984 ft 198 kts 71°
2026-05-04 19:36 51.24989 7.82573 10983 ft 198 kts 71°
2026-05-04 19:36 51.25498 7.84620 10983 ft 199 kts 72°
2026-05-04 19:37 51.25998 7.86679 10982 ft 199 kts 72°
2026-05-04 19:37 51.26495 7.88736 10984 ft 198 kts 72°
2026-05-04 19:37 51.26992 7.90789 10982 ft 198 kts 72°
2026-05-04 19:37 51.27487 7.92840 10981 ft 198 kts 72°
2026-05-04 19:38 51.27983 7.94889 10982 ft 198 kts 72°
2026-05-04 19:38 51.28475 7.96934 10984 ft 198 kts 72°
2026-05-04 19:38 51.28969 7.98985 10982 ft 197 kts 72°
2026-05-04 19:38 51.29462 8.01029 10981 ft 197 kts 72°
2026-05-04 19:39 51.29947 8.03044 10983 ft 197 kts 72°
2026-05-04 19:39 51.30439 8.05088 10985 ft 197 kts 72°
2026-05-04 19:39 51.30931 8.07138 10982 ft 197 kts 72°
2026-05-04 19:39 51.31422 8.09187 10983 ft 197 kts 72°
2026-05-04 19:40 51.31913 8.11235 10982 ft 197 kts 72°
2026-05-04 19:40 51.32404 8.13284 10983 ft 197 kts 72°
2026-05-04 19:40 51.32894 8.15329 10981 ft 197 kts 72°
2026-05-04 19:40 51.33383 8.17375 10984 ft 197 kts 72°
2026-05-04 19:41 51.33871 8.19422 10983 ft 197 kts 72°
2026-05-04 19:41 51.34358 8.21467 10983 ft 197 kts 72°
2026-05-04 19:41 51.34846 8.23515 10980 ft 197 kts 72°
2026-05-04 19:41 51.35329 8.25567 10981 ft 197 kts 72°
2026-05-04 19:42 51.35926 8.27546 10978 ft 199 kts 62°
2026-05-04 19:42 51.36635 8.29448 10982 ft 199 kts 62°
2026-05-04 19:42 51.37295 8.31396 10980 ft 199 kts 65°
2026-05-04 19:42 51.37925 8.33367 10981 ft 199 kts 65°
2026-05-04 19:43 51.38556 8.35342 10982 ft 199 kts 65°
2026-05-04 19:43 51.39189 8.37315 10984 ft 199 kts 65°
2026-05-04 19:43 51.39823 8.39291 10982 ft 199 kts 65°
2026-05-04 19:43 51.40447 8.41233 10983 ft 198 kts 65°
2026-05-04 19:44 51.41068 8.43203 10981 ft 197 kts 69°
2026-05-04 19:44 51.41352 8.45314 10985 ft 193 kts 93°
2026-05-04 19:44 51.41321 8.47451 10987 ft 192 kts 96°
2026-05-04 19:44 51.41304 8.49590 10987 ft 192 kts 95°
2026-05-04 19:45 51.41285 8.51735 10986 ft 192 kts 95°
2026-05-04 19:45 51.41261 8.53875 10986 ft 193 kts 96°
2026-05-04 19:45 51.41236 8.56024 10986 ft 193 kts 96°
2026-05-04 19:45 51.41211 8.58172 10986 ft 193 kts 95°
2026-05-04 19:46 51.41186 8.60319 10985 ft 193 kts 96°
2026-05-04 19:46 51.41162 8.62464 10985 ft 193 kts 95°
2026-05-04 19:46 51.41525 8.64538 10985 ft 199 kts 59°
2026-05-04 19:46 51.42506 8.66114 10986 ft 201 kts 40°
2026-05-04 19:47 51.43609 8.67494 10986 ft 201 kts 38°
2026-05-04 19:47 51.44699 8.68896 10987 ft 201 kts 41°
2026-05-04 19:47 51.45745 8.70383 10988 ft 201 kts 44°
2026-05-04 19:47 51.46775 8.71891 10985 ft 201 kts 44°
2026-05-04 19:48 51.47808 8.73399 10989 ft 200 kts 43°
2026-05-04 19:48 51.48843 8.74901 10989 ft 200 kts 44°
2026-05-04 19:48 51.49864 8.76387 10988 ft 200 kts 43°
2026-05-04 19:48 51.50897 8.77889 10986 ft 200 kts 44°
2026-05-04 19:49 51.51934 8.79398 10989 ft 200 kts 44°
2026-05-04 19:49 51.52967 8.80903 10986 ft 200 kts 44°
2026-05-04 19:49 51.53999 8.82407 10987 ft 200 kts 44°
2026-05-04 19:49 51.55027 8.83908 10985 ft 199 kts 44°
2026-05-04 19:50 51.56042 8.85389 10987 ft 199 kts 44°
2026-05-04 19:50 51.57078 8.86902 10985 ft 198 kts 44°
2026-05-04 19:50 51.58084 8.88372 10985 ft 198 kts 44°
2026-05-04 19:50 51.59099 8.89857 10983 ft 197 kts 44°
2026-05-04 19:51 51.60112 8.91340 10986 ft 196 kts 44°
2026-05-04 19:51 51.61120 8.92817 10985 ft 196 kts 44°
2026-05-04 19:51 51.62127 8.94291 10983 ft 195 kts 44°
2026-05-04 19:51 51.63126 8.95756 10985 ft 195 kts 44°
2026-05-04 19:52 51.64128 8.97226 10985 ft 194 kts 44°
2026-05-04 19:52 51.65124 8.98688 10981 ft 193 kts 44°
2026-05-04 19:52 51.66115 9.00144 10979 ft 192 kts 44°
2026-05-04 19:52 51.67106 9.01600 10983 ft 192 kts 44°
2026-05-04 19:53 51.68092 9.03052 10980 ft 191 kts 44°
2026-05-04 19:53 51.69061 9.04478 10977 ft 191 kts 44°
2026-05-04 19:53 51.70054 9.05939 10981 ft 190 kts 44°
2026-05-04 19:53 51.71019 9.07361 10981 ft 189 kts 44°
2026-05-04 19:54 51.71988 9.08790 10980 ft 189 kts 44°
2026-05-04 19:54 51.72958 9.10221 10976 ft 188 kts 44°
2026-05-04 19:54 51.73925 9.11648 10978 ft 188 kts 44°
2026-05-04 19:54 51.74888 9.13072 10977 ft 187 kts 44°
2026-05-04 19:55 51.75846 9.14488 10974 ft 187 kts 43°
2026-05-04 19:55 51.76804 9.15905 10973 ft 186 kts 44°
2026-05-04 19:55 51.77758 9.17316 10978 ft 186 kts 43°
2026-05-04 19:55 51.78712 9.18728 10976 ft 186 kts 44°
2026-05-04 19:56 51.79667 9.20143 10974 ft 186 kts 44°
2026-05-04 19:56 51.80619 9.21554 10981 ft 186 kts 44°
2026-05-04 19:56 51.81570 9.22966 10978 ft 185 kts 44°
2026-05-04 19:56 51.82521 9.24378 10981 ft 185 kts 44°
2026-05-04 19:57 51.83478 9.25798 10920 ft 189 kts 44°
2026-05-04 19:57 51.84446 9.27235 10799 ft 193 kts 44°
2026-05-04 19:57 51.85440 9.28714 10678 ft 195 kts 44°
2026-05-04 19:57 51.86444 9.30210 10559 ft 197 kts 44°
2026-05-04 19:58 51.87452 9.31710 10436 ft 197 kts 44°
2026-05-04 19:58 51.88461 9.33212 10316 ft 197 kts 44°
2026-05-04 19:58 51.89466 9.34709 10197 ft 197 kts 44°
2026-05-04 19:58 51.90474 9.36213 10079 ft 197 kts 44°
2026-05-04 19:59 51.91482 9.37716 9960 ft 197 kts 44°
2026-05-04 19:59 51.92493 9.39227 9822 ft 198 kts 44°
2026-05-04 19:59 51.93511 9.40750 9605 ft 202 kts 44°
2026-05-04 19:59 51.94558 9.42317 9343 ft 207 kts 44°
2026-05-04 20:00 51.95627 9.43916 9079 ft 211 kts 44°
2026-05-04 20:00 51.96710 9.45537 8813 ft 212 kts 44°
2026-05-04 20:00 51.97798 9.47164 8567 ft 213 kts 44°
2026-05-04 20:00 51.98891 9.48807 8304 ft 214 kts 44°
2026-05-04 20:01 51.99980 9.50441 8049 ft 213 kts 44°
2026-05-04 20:01 52.01050 9.52044 7992 ft 204 kts 44°
2026-05-04 20:01 52.02060 9.53558 7989 ft 197 kts 44°
2026-05-04 20:01 52.03051 9.55049 7989 ft 192 kts 44°
2026-05-04 20:02 52.04033 9.56507 7990 ft 190 kts 43°
2026-05-04 20:02 52.05005 9.57953 7988 ft 189 kts 43°
2026-05-04 20:02 52.05965 9.59397 7987 ft 188 kts 44°
2026-05-04 20:02 52.06920 9.60840 7988 ft 187 kts 44°
2026-05-04 20:03 52.07872 9.62280 7987 ft 187 kts 44°
2026-05-04 20:03 52.08825 9.63721 7988 ft 187 kts 43°
2026-05-04 20:03 52.09791 9.65184 7802 ft 192 kts 44°
2026-05-04 20:03 52.10768 9.66669 7550 ft 192 kts 44°
2026-05-04 20:04 52.11747 9.68148 7304 ft 192 kts 43°
2026-05-04 20:04 52.12721 9.69620 7058 ft 189 kts 43°
2026-05-04 20:04 52.13677 9.71066 6811 ft 186 kts 43°
2026-05-04 20:04 52.14616 9.72497 6573 ft 184 kts 44°
2026-05-04 20:05 52.15552 9.73912 6325 ft 182 kts 43°
2026-05-04 20:05 52.16479 9.75320 6067 ft 182 kts 43°
2026-05-04 20:05 52.17407 9.76727 5803 ft 182 kts 43°
2026-05-04 20:05 52.18329 9.78129 5559 ft 180 kts 43°
2026-05-04 20:06 52.19246 9.79528 5307 ft 181 kts 43°
2026-05-04 20:06 52.20166 9.80929 5058 ft 181 kts 43°
2026-05-04 20:06 52.21090 9.82322 4850 ft 178 kts 41°
2026-05-04 20:06 52.21999 9.83666 4649 ft 176 kts 42°
2026-05-04 20:07 52.22904 9.84997 4382 ft 176 kts 41°
2026-05-04 20:07 52.23803 9.86326 4147 ft 173 kts 44°
2026-05-04 20:07 52.24655 9.87652 4003 ft 168 kts 43°
2026-05-04 20:07 52.25487 9.88909 3939 ft 159 kts 39°
2026-05-04 20:08 52.26467 9.89657 3939 ft 148 kts 25°
2026-05-04 20:08 52.27352 9.90418 3965 ft 141 kts 27°
2026-05-04 20:08 52.28206 9.91198 3934 ft 141 kts 30°
2026-05-04 20:08 52.29034 9.91990 3974 ft 136 kts 28°
2026-05-04 20:09 52.29868 9.92706 3995 ft 133 kts 27°
2026-05-04 20:09 52.30686 9.93447 3976 ft 138 kts 27°
2026-05-04 20:09 52.31536 9.94164 3953 ft 142 kts 24°
2026-05-04 20:09 52.32439 9.94850 3974 ft 140 kts 27°
2026-05-04 20:10 52.33266 9.95599 3990 ft 137 kts 29°
2026-05-04 20:10 52.34084 9.96385 3992 ft 134 kts 30°
2026-05-04 20:10 52.34897 9.97145 3913 ft 138 kts 26°
2026-05-04 20:10 52.35732 9.97846 3943 ft 133 kts 27°
2026-05-04 20:11 52.36537 9.98573 3962 ft 130 kts 30°
2026-05-04 20:11 52.37307 9.99344 3975 ft 131 kts 31°
2026-05-04 20:11 52.38108 10.00123 3946 ft 136 kts 30°
2026-05-04 20:11 52.38924 10.00896 3965 ft 136 kts 28°
2026-05-04 20:12 52.39750 10.01648 3999 ft 136 kts 28°
2026-05-04 20:12 52.40588 10.02377 4016 ft 136 kts 27°
2026-05-04 20:12 52.41461 10.02854 4102 ft 130 kts
2026-05-04 20:12 52.42379 10.02844 4084 ft 134 kts 350°
2026-05-04 20:13 52.43273 10.02474 3922 ft 122 kts 345°
2026-05-04 20:13 52.43996 10.02045 3686 ft 108 kts 327°
2026-05-04 20:13 52.44509 10.01219 3520 ft 103 kts 300°
2026-05-04 20:13 52.44682 10.00100 3303 ft 97 kts 271°
2026-05-04 20:14 52.44723 9.98939 3162 ft 105 kts 274°
2026-05-04 20:14 52.44788 9.97736 3053 ft 105 kts 275°
2026-05-04 20:14 52.44844 9.96536 2962 ft 104 kts 269°
2026-05-04 20:14 52.44840 9.95410 2975 ft 90 kts 268°
2026-05-04 20:15 52.44832 9.94354 2844 ft 92 kts 270°
2026-05-04 20:15 52.44849 9.93297 2745 ft 94 kts 270°
2026-05-04 20:15 52.44847 9.92243 2709 ft 92 kts 268°
2026-05-04 20:15 52.44846 9.91185 2596 ft 94 kts 269°
2026-05-04 20:16 52.44825 9.90113 2507 ft 94 kts 266°
2026-05-04 20:16 52.44799 9.89038 2399 ft 94 kts 270°
2026-05-04 20:16 52.44863 9.87964 2273 ft 96 kts 274°
2026-05-04 20:16 52.44895 9.86883 2159 ft 95 kts 271°
2026-05-04 20:17 52.44907 9.85800 2043 ft 95 kts 268°
2026-05-04 20:17 52.44958 9.84703 1888 ft 97 kts 275°
2026-05-04 20:17 52.45015 9.83614 1767 ft 95 kts 274°
2026-05-04 20:17 52.45058 9.82514 1570 ft 100 kts 271°
2026-05-04 20:18 52.45086 9.81763 1462 ft 96 kts 274°
2026-05-04 20:18 52.45141 9.80696 1371 ft 93 kts 274°
2026-05-04 20:18 52.45192 9.79630 1233 ft 95 kts 272°
2026-05-04 20:18 52.45215 9.78218 1083 ft 93 kts 269°
2026-05-04 20:19 52.45246 9.77163 967 ft 93 kts 271°
2026-05-04 20:19 52.45270 9.76443 864 ft 93 kts 271°
2026-05-04 20:19 52.45317 9.75399 760 ft 92 kts 271°
2026-05-04 20:19 52.45329 9.74349 629 ft 92 kts 264°
2026-05-04 20:20 52.45350 9.73304 485 ft 91 kts 268°
2026-05-04 20:20 52.45376 9.72261 343 ft 91 kts 267°
2026-05-04 20:20 52.45400 9.71247 252 ft 90 kts 265°
2026-05-04 20:20 52.45422 9.70104 209 ft 109 kts 268°
2026-05-04 20:21 52.45460 9.68783 214 ft 127 kts 268°
2026-05-04 20:21 52.45499 9.67515 818 ft 100 kts 269°
2026-05-04 20:21 52.45542 9.65153 1403 ft 108 kts 272°
2026-05-04 20:22 52.45591 9.63890 1713 ft 109 kts 272°
2026-05-04 20:22 52.45634 9.62661 2025 ft 111 kts 271°
2026-05-04 20:22 52.45662 9.61450 2431 ft 103 kts 270°
2026-05-04 20:22 52.45859 9.60334 2805 ft 97 kts 305°
2026-05-04 20:23 52.46395 9.59646 3091 ft 107 kts 335°
2026-05-04 20:23 52.47083 9.59553 3505 ft 98 kts 17°
2026-05-04 20:23 52.47704 9.60231 3701 ft 112 kts 46°
2026-05-04 20:23 52.48107 9.61409 3814 ft 132 kts 68°
2026-05-04 20:24 52.48525 9.62897 3660 ft 154 kts 65°
2026-05-04 20:24 52.49001 9.64516 3548 ft 163 kts 64°
2026-05-04 20:24 52.49495 9.66162 3408 ft 159 kts 64°
2026-05-04 20:24 52.49961 9.67735 3315 ft 149 kts 65°
2026-05-04 20:25 52.50408 9.69260 3119 ft 148 kts 66°
2026-05-04 20:25 52.50800 9.70784 3004 ft 142 kts 68°
2026-05-04 20:25 52.51184 9.72244 2913 ft 137 kts 59°
2026-05-04 20:25 52.51835 9.73262 2942 ft 126 kts 28°
2026-05-04 20:26 52.52619 9.73864 2895 ft 123 kts 25°
2026-05-04 20:26 52.53366 9.74430 3042 ft 118 kts 24°
2026-05-04 20:26 52.54159 9.75016 3011 ft 131 kts 28°
2026-05-04 20:26 52.54811 9.76052 3066 ft 132 kts 59°
2026-05-04 20:27 52.55174 9.77393 3216 ft 127 kts 75°
2026-05-04 20:27 52.55243 9.78902 3136 ft 137 kts 92°
2026-05-04 20:27 52.55234 9.80499 2977 ft 140 kts 89°
2026-05-04 20:27 52.55288 9.82087 2843 ft 138 kts 85°
2026-05-04 20:28 52.55352 9.83629 2843 ft 127 kts 91°
2026-05-04 20:28 52.55241 9.85053 2888 ft 126 kts 103°
2026-05-04 20:28 52.55035 9.86478 2956 ft 129 kts 104°
2026-05-04 20:28 52.54819 9.87910 2980 ft 130 kts 103°
2026-05-04 20:29 52.54621 9.89352 3004 ft 129 kts 102°
2026-05-04 20:29 52.54456 9.90798 3015 ft 129 kts 100°
2026-05-04 20:29 52.54335 9.92251 3041 ft 129 kts 97°
2026-05-04 20:29 52.54183 9.93683 3040 ft 129 kts 105°
2026-05-04 20:30 52.53939 9.95099 3055 ft 130 kts 104°
2026-05-04 20:30 52.53728 9.96537 3074 ft 129 kts 102°
2026-05-04 20:30 52.53567 9.97994 3064 ft 131 kts 104°
2026-05-04 20:30 52.53281 9.99410 3082 ft 130 kts 110°
2026-05-04 20:31 52.52968 10.00833 3004 ft 136 kts 108°
2026-05-04 20:31 52.52689 10.02305 3012 ft 133 kts 108°
2026-05-04 20:31 52.52400 10.03745 3008 ft 133 kts 106°
2026-05-04 20:31 52.52143 10.05207 2993 ft 133 kts 105°
2026-05-04 20:32 52.51978 10.06697 2987 ft 133 kts 96°
2026-05-04 20:32 52.51810 10.08179 2999 ft 132 kts 104°
2026-05-04 20:32 52.51557 10.09621 2987 ft 132 kts 119°
2026-05-04 20:32 52.50858 10.10524 2998 ft 131 kts 166°
2026-05-04 20:33 52.49956 10.10534 3005 ft 130 kts 184°
2026-05-04 20:33 52.49051 10.10441 3028 ft 128 kts 184°
2026-05-04 20:33 52.48189 10.10339 3023 ft 124 kts 189°
2026-05-04 20:33 52.47499 10.09611 3025 ft 119 kts 237°
2026-05-04 20:34 52.47117 10.08425 3028 ft 117 kts 244°
2026-05-04 20:34 52.46760 10.07241 3028 ft 115 kts 244°
2026-05-04 20:34 52.46409 10.06068 3027 ft 114 kts 244°
2026-05-04 20:34 52.46062 10.04907 3027 ft 113 kts 244°
2026-05-04 20:35 52.45842 10.03685 2998 ft 115 kts 275°
2026-05-04 20:35 52.45864 10.02400 3005 ft 114 kts 268°
2026-05-04 20:35 52.45841 10.01093 2985 ft 114 kts 265°
2026-05-04 20:35 52.45828 9.99798 2974 ft 114 kts 270°
2026-05-04 20:36 52.45814 9.98496 2943 ft 116 kts 270°
2026-05-04 20:36 52.45881 9.97189 2959 ft 113 kts 274°
2026-05-04 20:36 52.45962 9.95900 2938 ft 114 kts 278°
2026-05-04 20:36 52.46075 9.94647 2946 ft 113 kts 273°
2026-05-04 20:37 52.46138 9.93354 2920 ft 114 kts 276°
2026-05-04 20:37 52.46212 9.92053 2882 ft 116 kts 269°
2026-05-04 20:37 52.46176 9.90768 2887 ft 106 kts 267°
2026-05-04 20:37 52.46166 9.89651 2798 ft 91 kts 272°
2026-05-04 20:38 52.46232 9.88597 2586 ft 97 kts 275°
2026-05-04 20:38 52.46299 9.87518 2490 ft 93 kts 272°
2026-05-04 20:38 52.46350 9.86444 2367 ft 93 kts 270°
2026-05-04 20:38 52.46261 9.85381 2218 ft 95 kts 265°
2026-05-04 20:39 52.46262 9.84288 2059 ft 95 kts 272°
2026-05-04 20:39 52.46335 9.83226 1948 ft 93 kts 280°
2026-05-04 20:39 52.46439 9.82181 1825 ft 94 kts 276°
2026-05-04 20:39 52.46472 9.81101 1648 ft 96 kts 266°
2026-05-04 20:40 52.46401 9.80020 1478 ft 96 kts 267°
2026-05-04 20:40 52.46423 9.78957 1352 ft 93 kts 274°
2026-05-04 20:40 52.46474 9.77906 1246 ft 90 kts 272°
2026-05-04 20:40 52.46515 9.76866 1119 ft 92 kts 271°
2026-05-04 20:41 52.46538 9.75814 975 ft 94 kts 268°
2026-05-04 20:41 52.46565 9.74738 814 ft 94 kts 271°
2026-05-04 20:41 52.46608 9.73690 702 ft 91 kts 269°
2026-05-04 20:41 52.46635 9.72646 563 ft 91 kts 265°
2026-05-04 20:42 52.46643 9.71611 434 ft 90 kts 268°
2026-05-04 20:42 52.46678 9.70579 286 ft 90 kts 267°
2026-05-04 20:42 52.46706 9.69591 177 ft 78 kts 268°
2026-05-04 20:42 52.46722 9.68944 172 ft 40 kts 272°
2026-05-04 20:43 52.46729 9.68597 173 ft 23 kts 268°
2026-05-04 20:43 52.46737 9.68307 173 ft 22 kts 277°
2026-05-04 20:43 52.46725 9.68125 173 ft 12 kts 213°
2026-05-04 20:43 52.46667 9.68125 172 ft 6 kts 138°
2026-05-04 20:44 52.46637 9.68168 171 ft 6 kts 142°
2026-05-04 20:44 52.46606 9.68205 170 ft 5 kts 144°
2026-05-04 20:44 52.46578 9.68238 171 ft 7 kts 143°
2026-05-04 20:44 52.46532 9.68300 174 ft 9 kts 141°
2026-05-04 20:45 52.46478 9.68366 177 ft 12 kts 143°
2026-05-04 20:45 52.46400 9.68466 176 ft 14 kts 141°
2026-05-04 20:45 52.46347 9.68529 176 ft 11 kts 144°
2026-05-04 20:45 52.46292 9.68603 175 ft 8 kts 151°
2026-05-04 20:46 52.46270 9.68627 175 ft 0 kts 136°
2026-05-04 20:46 52.46240 9.68696 175 ft 16 kts 101°
2026-05-04 20:46 52.46284 9.68913 175 ft 19 kts 68°
2026-05-04 20:46 52.46326 9.69083 177 ft 14 kts 70°
2026-05-04 20:47 52.46358 9.69213 177 ft 11 kts 70°
2026-05-04 20:47 52.46364 9.69244 177 ft 0 kts 72°
2026-05-04 20:47 52.46355 9.69268 177 ft 8 kts 148°
2026-05-04 20:47 52.46302 9.69297 176 ft 10 kts 148°
2026-05-04 20:48 52.46314 9.69399 176 ft 7 kts
2026-05-04 20:48 52.46338 9.69390 177 ft 1 kts 341°
2026-05-04 20:48 52.46342 9.69387 177 ft 0 kts 340°